Year,Month,Day,Hour,Minute,Value (Times are PST for temperature in C)
2019,09,21,00,00,14.60
2019,09,21,00,01,14.60
2019,09,21,00,02,14.60
2019,09,21,00,03,14.70
2019,09,21,00,04,14.70
2019,09,21,00,05,14.70
2019,09,21,00,06,14.70
2019,09,21,00,07,14.70
2019,09,21,00,08,14.70
2019,09,21,00,09,14.70
2019,09,21,00,10,14.70
2019,09,21,00,11,14.70
2019,09,21,00,12,14.70
2019,09,21,00,13,14.70
2019,09,21,00,14,14.70
2019,09,21,00,15,14.70
2019,09,21,00,16,14.70
2019,09,21,00,17,14.70
2019,09,21,00,18,14.60
2019,09,21,00,19,14.60
2019,09,21,00,20,14.60
2019,09,21,00,21,14.60
2019,09,21,00,22,14.60
2019,09,21,00,23,14.60
2019,09,21,00,24,14.60
2019,09,21,00,25,14.60
2019,09,21,00,26,14.60
2019,09,21,00,27,14.60
2019,09,21,00,28,14.60
2019,09,21,00,29,14.60
2019,09,21,00,30,14.60
2019,09,21,00,31,14.60
2019,09,21,00,32,14.60
2019,09,21,00,33,14.60
2019,09,21,00,34,14.60
2019,09,21,00,35,14.60
2019,09,21,00,36,14.60
2019,09,21,00,37,14.60
2019,09,21,00,38,14.60
2019,09,21,00,39,14.50
2019,09,21,00,40,14.60
2019,09,21,00,41,14.50
2019,09,21,00,42,14.50
2019,09,21,00,43,14.50
2019,09,21,00,44,14.50
2019,09,21,00,45,14.50
2019,09,21,00,46,14.50
2019,09,21,00,47,14.50
2019,09,21,00,48,14.50
2019,09,21,00,49,14.40
2019,09,21,00,50,14.40
2019,09,21,00,51,14.40
2019,09,21,00,52,14.40
2019,09,21,00,53,14.40
2019,09,21,00,54,14.40
2019,09,21,00,55,14.40
2019,09,21,00,56,14.40
2019,09,21,00,57,14.40
2019,09,21,00,58,14.40
2019,09,21,00,59,14.40
2019,09,21,01,00,14.40
2019,09,21,01,01,14.40
2019,09,21,01,02,14.40
2019,09,21,01,03,14.40
2019,09,21,01,04,14.30
2019,09,21,01,05,14.30
2019,09,21,01,06,14.30
2019,09,21,01,07,14.30
2019,09,21,01,08,14.30
2019,09,21,01,09,14.30
2019,09,21,01,10,14.30
2019,09,21,01,11,14.30
2019,09,21,01,12,14.30
2019,09,21,01,13,14.30
2019,09,21,01,14,14.30
2019,09,21,01,15,14.30
2019,09,21,01,16,14.30
2019,09,21,01,17,14.30
2019,09,21,01,18,14.30
2019,09,21,01,19,14.30
2019,09,21,01,20,14.30
2019,09,21,01,21,14.30
2019,09,21,01,22,14.30
2019,09,21,01,23,14.30
2019,09,21,01,24,14.30
2019,09,21,01,25,14.30
2019,09,21,01,26,14.30
2019,09,21,01,27,14.30
2019,09,21,01,28,14.30
2019,09,21,01,29,14.40
2019,09,21,01,30,14.40
2019,09,21,01,31,14.40
2019,09,21,01,32,14.40
2019,09,21,01,33,14.40
2019,09,21,01,34,14.40
2019,09,21,01,35,14.40
2019,09,21,01,36,14.40
2019,09,21,01,37,14.40
2019,09,21,01,38,14.40
2019,09,21,01,39,14.40
2019,09,21,01,40,14.40
2019,09,21,01,41,14.40
2019,09,21,01,42,14.40
2019,09,21,01,43,14.40
2019,09,21,01,44,14.40
2019,09,21,01,45,14.40
2019,09,21,01,46,14.40
2019,09,21,01,47,14.40
2019,09,21,01,48,14.40
2019,09,21,01,49,14.40
2019,09,21,01,50,14.40
2019,09,21,01,51,14.40
2019,09,21,01,52,14.40
2019,09,21,01,53,14.40
2019,09,21,01,54,14.40
2019,09,21,01,55,14.40
2019,09,21,01,56,14.30
2019,09,21,01,57,14.40
2019,09,21,01,58,14.30
2019,09,21,01,59,14.30
2019,09,21,02,00,14.40
2019,09,21,02,01,14.40
2019,09,21,02,02,14.40
2019,09,21,02,03,14.40
2019,09,21,02,04,14.40
2019,09,21,02,05,14.40
2019,09,21,02,06,14.40
2019,09,21,02,07,14.40
2019,09,21,02,08,14.40
2019,09,21,02,09,14.40
2019,09,21,02,10,14.40
2019,09,21,02,11,14.30
2019,09,21,02,12,14.30
2019,09,21,02,13,14.30
2019,09,21,02,14,14.30
2019,09,21,02,15,14.30
2019,09,21,02,16,14.30
2019,09,21,02,17,14.30
2019,09,21,02,18,14.30
2019,09,21,02,19,14.30
2019,09,21,02,20,14.30
2019,09,21,02,21,14.30
2019,09,21,02,22,14.30
2019,09,21,02,23,14.30
2019,09,21,02,24,14.30
2019,09,21,02,25,14.30
2019,09,21,02,26,14.30
2019,09,21,02,27,14.30
2019,09,21,02,28,14.30
2019,09,21,02,29,14.20
2019,09,21,02,30,14.20
2019,09,21,02,31,14.20
2019,09,21,02,32,14.20
2019,09,21,02,33,14.20
2019,09,21,02,34,14.20
2019,09,21,02,35,14.20
2019,09,21,02,36,14.20
2019,09,21,02,37,14.20
2019,09,21,02,38,14.20
2019,09,21,02,39,14.20
2019,09,21,02,40,14.20
2019,09,21,02,41,14.20
2019,09,21,02,42,14.20
2019,09,21,02,43,14.20
2019,09,21,02,44,14.20
2019,09,21,02,45,14.20
2019,09,21,02,46,14.20
2019,09,21,02,47,14.10
2019,09,21,02,48,14.10
2019,09,21,02,49,14.10
2019,09,21,02,50,14.10
2019,09,21,02,51,14.10
2019,09,21,02,52,14.10
2019,09,21,02,53,14.10
2019,09,21,02,54,14.10
2019,09,21,02,55,14.10
2019,09,21,02,56,14.10
2019,09,21,02,57,14.10
2019,09,21,02,58,14.10
2019,09,21,02,59,14.10
2019,09,21,03,00,14.10
2019,09,21,07,48,13.50
2019,09,21,07,49,13.50
2019,09,21,07,50,13.50
2019,09,21,07,51,13.50
2019,09,21,07,52,13.50
2019,09,21,07,53,13.50
2019,09,21,07,54,13.50
2019,09,21,07,55,13.50
2019,09,21,07,56,13.50
2019,09,21,07,57,13.50
2019,09,21,07,58,13.50
2019,09,21,07,59,13.50
2019,09,21,08,00,13.50
2019,09,21,08,01,13.50
2019,09,21,08,02,13.60
2019,09,21,08,03,13.50
2019,09,21,08,04,13.50
2019,09,21,08,05,13.60
2019,09,21,08,06,13.60
2019,09,21,08,07,13.60
2019,09,21,08,08,13.60
2019,09,21,08,09,13.60
2019,09,21,08,10,13.60
2019,09,21,08,11,13.60
2019,09,21,08,12,13.60
2019,09,21,08,13,13.60
2019,09,21,08,14,13.60
2019,09,21,08,15,13.60
2019,09,21,08,16,13.60
2019,09,21,08,17,13.60
2019,09,21,08,18,13.60
2019,09,21,08,19,13.60
2019,09,21,08,20,13.60
2019,09,21,08,21,13.60
2019,09,21,08,22,13.60
2019,09,21,08,23,13.60
2019,09,21,08,24,13.60
2019,09,21,08,25,13.60
2019,09,21,08,26,13.60
2019,09,21,08,27,13.60
2019,09,21,08,28,13.60
2019,09,21,08,29,13.70
2019,09,21,08,30,13.70
2019,09,21,08,31,13.60
2019,09,21,08,32,13.60
2019,09,21,08,33,13.60
2019,09,21,08,34,13.60
2019,09,21,08,35,13.60
2019,09,21,08,36,13.60
2019,09,21,08,37,13.60
2019,09,21,08,38,13.60
2019,09,21,08,39,13.60
2019,09,21,08,40,13.60
2019,09,21,08,41,13.60
2019,09,21,08,42,13.60
2019,09,21,08,43,13.60
2019,09,21,08,44,13.60
2019,09,21,08,45,13.60
2019,09,21,08,46,13.60
2019,09,21,08,47,13.60
2019,09,21,08,48,13.60
2019,09,21,08,49,13.60
2019,09,21,08,50,13.60
2019,09,21,08,51,13.60
2019,09,21,08,52,13.60
2019,09,21,08,53,13.60
2019,09,21,08,54,13.50
2019,09,21,08,55,13.50
2019,09,21,08,56,13.50
2019,09,21,08,57,13.50
2019,09,21,08,58,13.50
2019,09,21,08,59,13.50
2019,09,21,09,00,13.50
2019,09,21,09,01,13.60
2019,09,21,09,02,13.60
2019,09,21,09,03,13.60
2019,09,21,09,04,13.60
2019,09,21,09,05,13.60
2019,09,21,09,06,13.60
2019,09,21,09,07,13.60
2019,09,21,09,08,13.60
2019,09,21,09,09,13.60
2019,09,21,09,10,13.60
2019,09,21,09,11,13.70
2019,09,21,09,12,13.70
2019,09,21,09,13,13.70
2019,09,21,09,14,13.70
2019,09,21,09,15,13.70
2019,09,21,09,16,13.70
2019,09,21,09,17,13.70
2019,09,21,09,18,13.70
2019,09,21,09,19,13.70
2019,09,21,09,20,13.70
2019,09,21,09,21,13.70
2019,09,21,09,22,13.70
2019,09,21,09,23,13.80
2019,09,21,09,24,13.80
2019,09,21,09,25,13.80
2019,09,21,09,26,13.80
2019,09,21,09,27,13.90
2019,09,21,09,28,13.90
2019,09,21,09,29,14.00
2019,09,21,09,30,14.10
2019,09,21,09,31,14.10
2019,09,21,09,32,14.20
2019,09,21,09,33,14.30
2019,09,21,09,34,14.30
2019,09,21,09,35,14.30
2019,09,21,09,36,14.40
2019,09,21,09,37,14.40
2019,09,21,09,38,14.40
2019,09,21,09,39,14.30
2019,09,21,09,40,14.30
2019,09,21,09,41,14.30
2019,09,21,09,42,14.30
2019,09,21,09,43,14.30
2019,09,21,09,44,14.20
2019,09,21,09,45,14.20
2019,09,21,09,46,14.20
2019,09,21,09,47,14.20
2019,09,21,09,48,14.20
2019,09,21,09,49,14.30
2019,09,21,09,50,14.30
2019,09,21,09,51,14.30
2019,09,21,09,52,14.40
2019,09,21,09,53,14.40
2019,09,21,09,54,14.40
2019,09,21,09,55,14.40
2019,09,21,09,56,14.50
2019,09,21,09,57,14.50
2019,09,21,09,58,14.60
2019,09,21,09,59,14.70
2019,09,21,10,00,14.80
2019,09,21,10,01,14.80
2019,09,21,10,02,14.80
2019,09,21,10,03,14.90
2019,09,21,10,04,14.90
2019,09,21,10,05,14.80
2019,09,21,10,06,14.80
2019,09,21,10,07,14.80
2019,09,21,10,08,14.80
2019,09,21,10,09,14.70
2019,09,21,10,10,14.70
2019,09,21,10,11,14.70
2019,09,21,10,12,14.70
2019,09,21,10,13,14.80
2019,09,21,10,14,14.80
2019,09,21,10,15,14.80
2019,09,21,10,16,14.80
2019,09,21,10,17,14.80
2019,09,21,10,18,14.80
2019,09,21,10,19,14.90
2019,09,21,10,20,14.90
2019,09,21,10,21,14.90
2019,09,21,10,22,15.00
2019,09,21,10,23,15.00
2019,09,21,10,24,15.10
2019,09,21,10,25,15.10
2019,09,21,10,26,15.20
2019,09,21,10,27,15.30
2019,09,21,10,28,15.30
2019,09,21,10,29,15.30
2019,09,21,10,30,15.30
2019,09,21,10,31,15.40
2019,09,21,10,32,15.40
2019,09,21,10,33,15.40
2019,09,21,10,34,15.50
2019,09,21,10,35,15.40
2019,09,21,10,36,15.40
2019,09,21,10,37,15.40
2019,09,21,10,38,15.40
2019,09,21,10,39,15.40
2019,09,21,10,40,15.40
2019,09,21,10,41,15.40
2019,09,21,10,42,15.40
2019,09,21,10,43,15.40
2019,09,21,10,44,15.40
2019,09,21,10,45,15.30
2019,09,21,10,46,15.30
2019,09,21,10,47,15.30
2019,09,21,10,48,15.30
2019,09,21,10,49,15.30
2019,09,21,10,50,15.30
2019,09,21,10,51,15.30
2019,09,21,10,52,15.30
2019,09,21,10,53,15.20
2019,09,21,10,54,15.30
2019,09,21,10,55,15.30
2019,09,21,10,56,15.40
2019,09,21,10,57,15.40
2019,09,21,10,58,15.50
2019,09,21,10,59,15.60
2019,09,21,11,00,15.70
2019,09,21,11,01,15.70
2019,09,21,11,02,15.70
2019,09,21,11,03,15.70
2019,09,21,11,04,15.80
2019,09,21,11,05,15.80
2019,09,21,11,06,15.80
2019,09,21,11,07,15.80
2019,09,21,11,08,15.80
2019,09,21,11,09,15.80
2019,09,21,11,10,15.80
2019,09,21,11,11,15.80
2019,09,21,11,12,15.90
2019,09,21,11,13,16.00
2019,09,21,11,14,16.00
2019,09,21,11,15,16.10
2019,09,21,11,16,16.20
2019,09,21,11,17,16.20
2019,09,21,11,18,16.20
2019,09,21,11,19,16.20
2019,09,21,11,20,16.20
2019,09,21,11,21,16.20
2019,09,21,11,22,16.30
2019,09,21,11,23,16.30
2019,09,21,11,24,16.30
2019,09,21,11,25,16.30
2019,09,21,11,26,16.30
2019,09,21,11,27,16.30
2019,09,21,11,28,16.30
2019,09,21,11,29,16.30
2019,09,21,11,30,16.30
2019,09,21,11,31,16.40
2019,09,21,11,32,16.40
2019,09,21,11,33,16.40
2019,09,21,11,34,16.40
2019,09,21,11,35,16.40
2019,09,21,11,36,16.40
2019,09,21,11,37,16.40
2019,09,21,11,38,16.40
2019,09,21,11,39,16.40
2019,09,21,11,40,16.30
2019,09,21,11,41,16.30
2019,09,21,11,42,16.30
2019,09,21,11,43,16.20
2019,09,21,11,44,16.20
2019,09,21,11,45,16.20
2019,09,21,11,46,16.20
2019,09,21,11,47,16.20
2019,09,21,11,48,16.20
2019,09,21,11,49,16.20
2019,09,21,11,50,16.20
2019,09,21,11,51,16.30
2019,09,21,11,52,16.30
2019,09,21,11,53,16.30
2019,09,21,11,54,16.40
2019,09,21,11,55,16.40
2019,09,21,11,56,16.50
2019,09,21,11,57,16.50
2019,09,21,11,58,16.50
2019,09,21,11,59,16.50
2019,09,21,12,00,16.40
2019,09,21,12,01,16.30
2019,09,21,12,02,16.30
2019,09,21,12,03,16.30
2019,09,21,12,04,16.30
2019,09,21,12,05,16.40
2019,09,21,12,06,16.40
2019,09,21,12,07,16.40
2019,09,21,12,08,16.50
2019,09,21,12,09,16.50
2019,09,21,12,10,16.50
2019,09,21,12,11,16.40
2019,09,21,12,12,16.50
2019,09,21,12,13,16.50
2019,09,21,12,14,16.50
2019,09,21,12,15,16.40
2019,09,21,12,16,16.40
2019,09,21,12,17,16.40
2019,09,21,12,18,16.40
2019,09,21,12,19,16.40
2019,09,21,12,20,16.40
2019,09,21,12,21,16.40
2019,09,21,12,22,16.40
2019,09,21,12,23,16.40
2019,09,21,12,24,16.50
2019,09,21,12,25,16.50
2019,09,21,12,26,16.50
2019,09,21,12,27,16.50
2019,09,21,12,28,16.60
2019,09,21,12,29,16.60
2019,09,21,12,30,16.50
2019,09,21,12,31,16.50
2019,09,21,12,32,16.40
2019,09,21,12,33,16.40
2019,09,21,12,34,16.40
2019,09,21,12,35,16.40
2019,09,21,12,36,16.40
2019,09,21,12,37,16.40
2019,09,21,12,38,16.40
2019,09,21,12,39,16.40
2019,09,21,12,40,16.50
2019,09,21,12,41,16.50
2019,09,21,12,42,16.60
2019,09,21,12,43,16.60
2019,09,21,12,44,16.70
2019,09,21,12,45,16.70
2019,09,21,12,46,16.70
2019,09,21,12,47,16.80
2019,09,21,12,48,16.80
2019,09,21,12,49,16.90
2019,09,21,12,50,17.00
2019,09,21,12,51,17.00
2019,09,21,12,52,17.10
2019,09,21,12,53,17.10
2019,09,21,12,54,17.10
2019,09,21,12,55,17.10
2019,09,21,12,56,17.00
2019,09,21,12,57,17.00
2019,09,21,12,58,17.00
2019,09,21,12,59,17.00
2019,09,21,13,00,17.10
2019,09,21,13,01,17.10
2019,09,21,13,02,17.20
2019,09,21,13,03,17.30
2019,09,21,13,04,17.30
2019,09,21,13,05,17.30
2019,09,21,13,06,17.30
2019,09,21,13,07,17.30
2019,09,21,13,08,17.30
2019,09,21,13,09,17.30
2019,09,21,13,10,17.40
2019,09,21,13,11,17.40
2019,09,21,13,12,17.40
2019,09,21,13,13,17.40
2019,09,21,13,14,17.40
2019,09,21,13,15,17.40
2019,09,21,13,16,17.40
2019,09,21,13,17,17.40
2019,09,21,13,18,17.40
2019,09,21,13,19,17.40
2019,09,21,13,20,17.40
2019,09,21,13,21,17.30
2019,09,21,13,22,17.30
2019,09,21,13,23,17.40
2019,09,21,13,24,17.40
2019,09,21,13,25,17.50
2019,09,21,13,26,17.60
2019,09,21,13,27,17.60
2019,09,21,13,28,17.60
2019,09,21,13,29,17.60
2019,09,21,13,30,17.60
2019,09,21,13,31,17.50
2019,09,21,13,32,17.50
2019,09,21,13,33,17.50
2019,09,21,13,34,17.50
2019,09,21,13,35,17.50
2019,09,21,13,36,17.50
2019,09,21,13,37,17.60
2019,09,21,13,38,17.60
2019,09,21,13,39,17.70
2019,09,21,13,40,17.70
2019,09,21,13,41,17.70
2019,09,21,13,42,17.80
2019,09,21,13,43,17.80
2019,09,21,13,44,17.80
2019,09,21,13,45,17.60
2019,09,21,13,46,17.50
2019,09,21,13,47,17.30
2019,09,21,13,48,17.20
2019,09,21,13,49,17.10
2019,09,21,13,50,16.90
2019,09,21,13,51,16.80
2019,09,21,13,52,16.80
2019,09,21,13,53,16.80
2019,09,21,13,54,16.80
2019,09,21,13,55,16.80
2019,09,21,13,56,16.80
2019,09,21,13,57,16.80
2019,09,21,13,58,16.80
2019,09,21,13,59,16.70
2019,09,21,14,00,16.70
2019,09,21,14,01,16.70
2019,09,21,14,02,16.70
2019,09,21,14,03,16.70
2019,09,21,14,04,16.70
2019,09,21,14,05,16.70
2019,09,21,14,06,16.70
2019,09,21,14,07,16.70
2019,09,21,14,08,16.80
2019,09,21,14,09,16.80
2019,09,21,14,10,16.90
2019,09,21,14,11,17.00
2019,09,21,14,12,17.10
2019,09,21,14,13,17.10
2019,09,21,14,14,17.10
2019,09,21,14,15,17.10
2019,09,21,14,16,17.10
2019,09,21,14,17,17.10
2019,09,21,14,18,17.10
2019,09,21,14,19,17.10
2019,09,21,14,20,17.20
2019,09,21,14,21,17.20
2019,09,21,14,22,17.20
2019,09,21,14,23,17.20
2019,09,21,14,24,17.10
2019,09,21,14,25,17.10
2019,09,21,14,26,17.10
2019,09,21,14,27,17.10
2019,09,21,14,28,17.10
2019,09,21,14,29,17.10
2019,09,21,14,30,17.10
2019,09,21,14,31,17.20
2019,09,21,14,32,17.20
2019,09,21,14,33,17.20
2019,09,21,14,34,17.20
2019,09,21,14,35,17.20
2019,09,21,14,36,17.30
2019,09,21,14,37,17.30
2019,09,21,14,38,17.30
2019,09,21,14,39,17.40
2019,09,21,14,40,17.40
2019,09,21,14,41,17.40
2019,09,21,14,42,17.40
2019,09,21,14,43,17.50
2019,09,21,14,44,17.50
2019,09,21,14,45,17.50
2019,09,21,14,46,17.40
2019,09,21,14,47,17.30
2019,09,21,14,48,17.30
2019,09,21,14,49,17.20
2019,09,21,14,50,17.20
2019,09,21,14,51,17.20
2019,09,21,14,52,17.20
2019,09,21,14,53,17.20
2019,09,21,14,54,17.20
2019,09,21,14,55,17.30
2019,09,21,14,56,17.30
2019,09,21,14,57,17.30
2019,09,21,14,58,17.30
2019,09,21,14,59,17.30
2019,09,21,15,00,17.30
2019,09,21,15,01,17.20
2019,09,21,15,02,17.20
2019,09,21,15,03,17.20
2019,09,21,15,04,17.30
2019,09,21,15,05,17.30
2019,09,21,15,06,17.30
2019,09,21,15,07,17.40
2019,09,21,15,08,17.40
2019,09,21,15,09,17.40
2019,09,21,15,10,17.50
2019,09,21,15,11,17.50
2019,09,21,15,12,17.60
2019,09,21,15,13,17.60
2019,09,21,15,14,17.60
2019,09,21,15,15,17.60
2019,09,21,15,16,17.60
2019,09,21,15,17,17.70
2019,09,21,15,18,17.70
2019,09,21,15,19,17.70
2019,09,21,15,20,17.70
2019,09,21,15,21,17.80
2019,09,21,15,22,17.80
2019,09,21,15,23,17.90
2019,09,21,15,24,17.90
2019,09,21,15,25,18.00
2019,09,21,15,26,18.00
2019,09,21,15,27,18.10
2019,09,21,15,28,18.20
2019,09,21,15,29,18.20
2019,09,21,15,30,18.20
2019,09,21,15,31,18.20
2019,09,21,15,32,18.20
2019,09,21,15,33,18.20
2019,09,21,15,34,18.20
2019,09,21,15,35,18.20
2019,09,21,15,36,18.20
2019,09,21,15,37,18.30
2019,09,21,15,38,18.30
2019,09,21,15,39,18.30
2019,09,21,15,40,18.30
2019,09,21,15,41,18.30
2019,09,21,15,42,18.20
2019,09,21,15,43,18.20
2019,09,21,15,44,18.10
2019,09,21,15,45,18.00
2019,09,21,15,46,17.90
2019,09,21,15,47,17.90
2019,09,21,15,48,17.80
2019,09,21,15,49,17.80
2019,09,21,15,50,17.80
2019,09,21,15,51,17.80
2019,09,21,15,52,17.70
2019,09,21,15,53,17.70
2019,09,21,15,54,17.80
2019,09,21,15,55,17.90
2019,09,21,15,56,18.00
2019,09,21,15,57,18.00
2019,09,21,15,58,18.10
2019,09,21,15,59,18.10
2019,09,21,16,00,18.10
2019,09,21,16,01,18.10
2019,09,21,16,02,18.20
2019,09,21,16,03,18.20
2019,09,21,16,04,18.10
2019,09,21,16,05,18.10
2019,09,21,16,06,18.10
2019,09,21,16,07,18.20
2019,09,21,16,08,18.20
2019,09,21,16,09,18.20
2019,09,21,16,10,18.30
2019,09,21,16,11,18.30
2019,09,21,16,12,18.20
2019,09,21,16,13,18.10
2019,09,21,16,14,18.00
2019,09,21,16,15,17.90
2019,09,21,16,16,17.90
2019,09,21,16,17,17.80
2019,09,21,16,18,17.80
2019,09,21,16,19,17.70
2019,09,21,16,20,17.60
2019,09,21,16,21,17.50
2019,09,21,16,22,17.40
2019,09,21,16,23,17.30
2019,09,21,16,24,17.20
2019,09,21,16,25,17.20
2019,09,21,16,26,17.20
2019,09,21,16,27,17.10
2019,09,21,16,28,17.10
2019,09,21,16,29,17.10
2019,09,21,16,30,17.10
2019,09,21,16,31,17.10
2019,09,21,16,32,17.10
2019,09,21,16,33,17.10
2019,09,21,16,34,17.10
2019,09,21,16,35,17.10
2019,09,21,16,36,17.10
2019,09,21,16,37,17.10
2019,09,21,16,38,17.10
2019,09,21,16,39,17.10
2019,09,21,16,40,17.10
2019,09,21,16,41,17.10
2019,09,21,16,42,17.10
2019,09,21,16,43,17.00
2019,09,21,16,44,17.10
2019,09,21,16,45,17.10
2019,09,21,16,46,17.10
2019,09,21,16,47,17.10
2019,09,21,16,48,17.20
2019,09,21,16,49,17.20
2019,09,21,16,50,17.20
2019,09,21,16,51,17.10
2019,09,21,16,52,17.10
2019,09,21,16,53,17.00
2019,09,21,16,54,17.00
2019,09,21,16,55,16.90
2019,09,21,16,56,16.90
2019,09,21,16,57,16.90
2019,09,21,16,58,16.90
2019,09,21,16,59,16.80
2019,09,21,17,00,16.80
2019,09,21,17,01,16.80
2019,09,21,17,02,16.80
2019,09,21,17,03,16.80
2019,09,21,17,04,16.80
2019,09,21,17,05,16.80
2019,09,21,17,06,16.80
2019,09,21,17,07,16.80
2019,09,21,17,08,16.80
2019,09,21,17,09,16.80
2019,09,21,17,10,16.80
2019,09,21,17,11,16.70
2019,09,21,17,12,16.70
2019,09,21,17,13,16.70
2019,09,21,17,14,16.70
2019,09,21,17,15,16.70
2019,09,21,17,16,16.70
2019,09,21,17,17,16.70
2019,09,21,17,18,16.70
2019,09,21,17,19,16.70
2019,09,21,17,20,16.70
2019,09,21,17,21,16.70
2019,09,21,17,22,16.70
2019,09,21,17,23,16.70
2019,09,21,17,24,16.70
2019,09,21,17,25,16.70
2019,09,21,17,26,16.70
2019,09,21,17,27,16.70
2019,09,21,17,28,16.70
2019,09,21,17,29,16.70
2019,09,21,17,30,16.70
2019,09,21,17,31,16.80
2019,09,21,17,32,16.70
2019,09,21,17,33,16.70
2019,09,21,17,34,16.70
2019,09,21,17,35,16.70
2019,09,21,17,36,16.70
2019,09,21,17,37,16.70
2019,09,21,17,38,16.70
2019,09,21,17,39,16.70
2019,09,21,17,40,16.70
2019,09,21,17,41,16.70
2019,09,21,17,42,16.70
2019,09,21,17,43,16.70
2019,09,21,17,44,16.70
2019,09,21,17,45,16.70
2019,09,21,17,46,16.70
2019,09,21,17,47,16.70
2019,09,21,17,48,16.70
2019,09,21,17,49,16.70
2019,09,21,17,50,16.70
2019,09,21,17,51,16.70
2019,09,21,17,52,16.70
2019,09,21,17,53,16.70
2019,09,21,17,54,16.70
2019,09,21,17,55,16.70
2019,09,21,17,56,16.70
2019,09,21,17,57,16.70
2019,09,21,17,58,16.70
2019,09,21,17,59,16.70
2019,09,21,18,00,16.70
2019,09,21,18,01,16.70
2019,09,21,18,02,16.70
2019,09,21,18,03,16.70
2019,09,21,18,04,16.70
2019,09,21,18,05,16.70
2019,09,21,18,06,16.70
2019,09,21,18,07,16.70
2019,09,21,18,08,16.70
2019,09,21,18,09,16.80
2019,09,21,18,10,16.80
2019,09,21,18,11,16.80
2019,09,21,18,12,16.80
2019,09,21,18,13,16.80
2019,09,21,18,14,16.80
2019,09,21,18,15,16.80
2019,09,21,18,16,16.80
2019,09,21,18,17,16.80
2019,09,21,18,18,16.80
2019,09,21,18,19,16.80
2019,09,21,18,20,16.80
2019,09,21,18,21,16.80
2019,09,21,18,22,16.80
2019,09,21,18,23,16.80
2019,09,21,18,24,16.80
2019,09,21,18,25,16.80
2019,09,21,18,26,16.80
2019,09,21,18,27,16.80
2019,09,21,18,28,16.80
2019,09,21,18,29,16.80
2019,09,21,18,30,16.80
2019,09,21,18,31,16.80
2019,09,21,18,32,16.80
2019,09,21,18,33,16.80
2019,09,21,18,34,16.80
2019,09,21,18,35,16.80
2019,09,21,18,36,16.90
2019,09,21,18,37,16.90
2019,09,21,18,38,16.90
2019,09,21,18,39,16.90
2019,09,21,18,40,17.00
2019,09,21,18,41,17.00
2019,09,21,18,42,17.00
2019,09,21,18,43,17.10
2019,09,21,18,44,17.10
2019,09,21,18,45,17.10
2019,09,21,18,46,17.10
2019,09,21,18,47,17.20
2019,09,21,18,48,17.20
2019,09,21,18,49,17.20
2019,09,21,18,50,17.20
2019,09,21,18,51,17.20
2019,09,21,18,52,17.20
2019,09,21,18,53,17.20
2019,09,21,18,54,17.30
2019,09,21,18,55,17.30
2019,09,21,18,56,17.30
2019,09,21,18,57,17.30
2019,09,21,18,58,17.30
2019,09,21,18,59,17.30
2019,09,21,19,00,17.30
2019,09,21,19,01,17.30
2019,09,21,19,02,17.30
2019,09,21,19,03,17.30
2019,09,21,19,04,17.30
2019,09,21,19,05,17.30
2019,09,21,19,06,17.30
2019,09,21,19,07,17.30
2019,09,21,19,08,17.30
2019,09,21,19,09,17.30
2019,09,21,19,10,17.40
2019,09,21,19,11,17.40
2019,09,21,19,12,17.40
2019,09,21,19,13,17.40
2019,09,21,19,14,17.40
2019,09,21,19,15,17.30
2019,09,21,19,16,17.30
2019,09,21,19,17,17.30
2019,09,21,19,18,17.30
2019,09,21,19,19,17.30
2019,09,21,19,20,17.30
2019,09,21,19,21,17.30
2019,09,21,19,22,17.30
2019,09,21,19,23,17.30
2019,09,21,19,24,17.30
2019,09,21,19,25,17.30
2019,09,21,19,26,17.30
2019,09,21,19,27,17.30
2019,09,21,19,28,17.30
2019,09,21,19,29,17.30
2019,09,21,19,30,17.30
2019,09,21,19,31,17.30
2019,09,21,19,32,17.30
2019,09,21,19,33,17.30
2019,09,21,19,34,17.30
2019,09,21,19,35,17.30
2019,09,21,19,36,17.30
2019,09,21,19,37,17.30
2019,09,21,19,38,17.30
2019,09,21,19,39,17.30
2019,09,21,19,40,17.30
2019,09,21,19,41,17.30
2019,09,21,19,42,17.30
2019,09,21,19,43,17.30
2019,09,21,19,44,17.20
2019,09,21,19,45,17.20
2019,09,21,19,46,17.20
2019,09,21,19,47,17.20
2019,09,21,19,48,17.20
2019,09,21,19,49,17.20
2019,09,21,19,50,17.10
2019,09,21,19,51,17.10
2019,09,21,19,52,17.10
2019,09,21,19,53,17.10
2019,09,21,19,54,17.00
2019,09,21,19,55,17.00
2019,09,21,19,56,17.00
2019,09,21,19,57,17.00
2019,09,21,19,58,17.00
2019,09,21,19,59,16.90
2019,09,21,20,00,16.90
2019,09,21,20,01,16.90
2019,09,21,20,02,16.90
2019,09,21,20,03,16.90
2019,09,21,20,04,16.90
2019,09,21,20,05,16.90
2019,09,21,20,06,16.90
2019,09,21,20,07,16.90
2019,09,21,20,08,16.90
2019,09,21,20,09,16.80
2019,09,21,20,10,16.80
2019,09,21,20,11,16.80
2019,09,21,20,12,16.80
2019,09,21,20,13,16.80
2019,09,21,20,14,16.80
2019,09,21,20,15,16.80
2019,09,21,20,16,16.80
2019,09,21,20,17,16.80
2019,09,21,20,18,16.80
2019,09,21,20,19,16.80
2019,09,21,20,20,16.80
2019,09,21,20,21,16.80
2019,09,21,20,22,16.80
2019,09,21,20,23,16.80
2019,09,21,20,24,16.80
2019,09,21,20,25,16.80
2019,09,21,20,26,16.80
2019,09,21,20,27,16.80
2019,09,21,20,28,16.80
2019,09,21,20,29,16.90
2019,09,21,20,30,16.90
2019,09,21,20,31,16.90
2019,09,21,20,32,16.90
2019,09,21,20,33,16.90
2019,09,21,20,34,16.90
2019,09,21,20,35,16.90
2019,09,21,20,36,16.90
2019,09,21,20,37,16.90
2019,09,21,20,38,16.90
2019,09,21,20,39,16.90
2019,09,21,20,40,16.90
2019,09,21,20,41,16.90
2019,09,21,20,42,16.90
2019,09,21,20,43,16.90
2019,09,21,20,44,16.90
2019,09,21,20,45,16.90
2019,09,21,20,46,16.90
2019,09,21,20,47,16.90
2019,09,21,20,48,16.90
2019,09,21,20,49,16.90
2019,09,21,20,50,16.90
2019,09,21,20,51,16.90
2019,09,21,20,52,16.90
2019,09,21,20,53,16.90
2019,09,21,20,54,16.90
2019,09,21,20,55,16.90
2019,09,21,20,56,16.90
2019,09,21,20,57,16.90
2019,09,21,20,58,16.90
2019,09,21,20,59,16.90
2019,09,21,21,00,16.90
2019,09,21,21,01,16.90
2019,09,21,21,02,16.90
2019,09,21,21,03,16.90
2019,09,21,21,04,16.90
2019,09,21,21,05,16.90
2019,09,21,21,06,16.90
2019,09,21,21,07,16.90
2019,09,21,21,08,16.90
2019,09,21,21,09,16.90
2019,09,21,21,10,16.90
2019,09,21,21,11,16.90
2019,09,21,21,12,16.90
2019,09,21,21,13,16.90
2019,09,21,21,14,16.90
2019,09,21,21,15,16.90
2019,09,21,21,16,16.90
2019,09,21,21,17,16.90
2019,09,21,21,18,16.90
2019,09,21,21,19,16.90
2019,09,21,21,20,16.90
2019,09,21,21,21,16.90
2019,09,21,21,22,16.90
2019,09,21,21,23,16.90
2019,09,21,21,24,16.90
2019,09,21,21,25,16.90
2019,09,21,21,26,16.90
2019,09,21,21,27,16.90
2019,09,21,21,28,16.90
2019,09,21,21,29,16.90
2019,09,21,21,30,16.90
2019,09,21,21,31,16.90
2019,09,21,21,32,16.90
2019,09,21,21,33,16.90
2019,09,21,21,34,16.90
2019,09,21,21,35,16.90
2019,09,21,21,36,16.90
2019,09,21,21,37,16.90
2019,09,21,21,38,16.90
2019,09,21,21,39,16.80
2019,09,21,21,40,16.80
2019,09,21,21,41,16.80
2019,09,21,21,42,16.80
2019,09,21,21,43,16.80
2019,09,21,21,44,16.80
2019,09,21,21,45,16.80
2019,09,21,21,46,16.80
2019,09,21,21,47,16.80
2019,09,21,21,48,16.80
2019,09,21,21,49,16.70
2019,09,21,21,50,16.70
2019,09,21,21,51,16.70
2019,09,21,21,52,16.70
2019,09,21,21,53,16.70
2019,09,21,21,54,16.70
2019,09,21,21,55,16.70
2019,09,21,21,56,16.70
2019,09,21,21,57,16.70
2019,09,21,21,58,16.70
2019,09,21,21,59,16.70
2019,09,21,22,00,16.70
2019,09,21,22,01,16.60
2019,09,21,22,02,16.60
2019,09,21,22,03,16.60
2019,09,21,22,04,16.60
2019,09,21,22,05,16.60
2019,09,21,22,06,16.60